Location: PACMO
(41.3967°N, 90.3760°W)
Time: 07:06:47
(UTC-05:00)

Amateur Radio Satellites - All Passes

Search period start: 23 August 2017 06:36
Search period end: 24 August 2017 06:36
Location: PACMO, 41.3967°N, 90.3760°W

Satellite Date Start Highest point End Downlink Frequencies (MHz)
Time Altitude Azimuth
NUDT-PHONESAT 23 Aug 06:54:03 06:57:30 34° 97° (E) 07:00:56 437.300
BEESAT 3 23 Aug 06:55:54 06:56:37 10° 323° (NW) 06:57:19 437.485
LilacSat-2 23 Aug 06:56:48 07:00:38 56° 101° (E) 07:04:26 437.200
XW-2D 23 Aug 06:57:46 07:01:33 56° 100° (E) 07:05:20 145.860 - 145.880
CUTE-I 23 Aug 07:06:27 07:11:39 52° 100° (E) 07:16:48 437.470
XW-2B 23 Aug 07:08:52 07:12:43 75° 102° (ESE) 07:16:33 145.730 - 145.750
BEESAT 2 23 Aug 07:13:16 07:15:52 16° 317° (NW) 07:18:30 435.950
NO-84 23 Aug 07:17:03 07:19:46 31° 35° (NE) 07:22:38 435.350 FM
CUTE 1.7 + AOD 2 23 Aug 07:23:58 07:27:07 20° 93° (E) 07:30:15 437.475
XW-2C 23 Aug 07:28:08 07:31:57 61° 285° (WNW) 07:35:45 145.795 - 145.815
AO-7 23 Aug 07:31:36 07:35:09 13° 316° (NW) 07:38:41 .
STRAND 1 23 Aug 07:33:19 07:38:25 80° 75° (ENE) 07:43:32 437.568
XW-2F 23 Aug 07:38:12 07:41:55 48° 286° (WNW) 07:45:36 145.980 - 146.000
PCSat 23 Aug 07:44:30 07:49:58 81° 60° (ENE) 07:55:23 145.827
UWE-3 23 Aug 07:50:25 07:51:46 11° 90° (E) 07:53:08 435.000/436.395/437.385
FO-29 23 Aug 07:51:24 07:55:52 18° 59° (ENE) 08:00:04 435.910
SO-50 23 Aug 07:55:13 07:59:48 80° 240° (WSW) 08:04:24 436.795
KAITUO 1B 23 Aug 07:59:06 08:02:34 33° 288° (WNW) 08:06:00 145.475/437.950
CUBEBUG 2 23 Aug 08:01:17 08:04:52 26° 96° (E) 08:08:30 437.445
Tancredo 1 23 Aug 08:05:32 08:08:02 26° 136° (SE) 08:10:33 437.200
SEEDS 23 Aug 08:06:09 08:10:05 35° 97° (E) 08:13:58 437.485
DOVE 4 23 Aug 08:10:58 08:11:17 10° 301° (WNW) 08:11:36 437.250
O/OREOS (USA 219) 23 Aug 08:15:16 08:16:57 12° 98° (E) 08:18:37 437.305
HO-68 23 Aug 08:16:19 08:23:27 66° 103° (ESE) 08:30:33 435.675
ZACube-1 23 Aug 08:23:16 08:25:44 15° 92° (E) 08:28:13 437.345
ISS 23 Aug 08:24:44 08:25:48 11° 129° (SE) 08:26:50 437.550
NUDT-PHONESAT 23 Aug 08:28:42 08:31:06 16° 293° (WNW) 08:33:30 437.300
nSIGHT-1 23 Aug 08:28:59 08:30:38 13° 130° (SE) 08:32:17 .
LilacSat-2 23 Aug 08:33:08 08:34:24 11° 296° (WNW) 08:35:40 437.200
XW-2D 23 Aug 08:34:02 08:35:15 11° 296° (WNW) 08:36:28 145.860 - 145.880
AO-73 23 Aug 08:42:08 08:45:28 21° 94° (E) 08:48:49 145.935
AAUSAT CUBESAT 2 23 Aug 08:43:37 08:47:36 41° 98° (E) 08:51:33 437.432
CUTE-I 23 Aug 08:47:23 08:51:18 21° 297° (WNW) 08:55:13 437.470
XW-2A 23 Aug 08:48:07 08:51:32 80° 284° (WNW) 08:54:56 145.665 - 145.685
NO-84 23 Aug 08:54:34 08:57:03 22° 230° (SW) 08:59:41 435.350 FM
CUTE 1.7 + AOD 2 23 Aug 08:59:06 09:03:02 36° 289° (WNW) 09:06:57 437.475
RS-15 23 Aug 09:00:35 09:06:37 15° 95° (E) 09:12:40 29.354- 29.394
TIGRISAT 23 Aug 09:11:22 09:14:24 19° 66° (ENE) 09:17:25 435.000
STRAND 1 23 Aug 09:16:24 09:18:10 12° 271° (W) 09:19:57 437.568
Oscar 11 23 Aug 09:23:33 09:27:44 43° 99° (E) 09:31:53 .
UWE-3 23 Aug 09:24:21 09:28:35 63° 285° (WNW) 09:32:54 435.000/436.395/437.385
PRISM 23 Aug 09:29:13 09:32:27 22° 67° (ENE) 09:35:40 437.425
PCSat 23 Aug 09:30:05 09:32:36 13° 257° (WSW) 09:35:06 145.827
FO-29 23 Aug 09:32:35 09:40:10 87° 73° (ENE) 09:46:59 435.910
CUBEBUG 2 23 Aug 09:37:52 09:41:25 26° 291° (WNW) 09:45:01 437.445
Tancredo 1 23 Aug 09:40:29 09:43:08 31° 333° (NNW) 09:45:48 437.200
SEEDS 23 Aug 09:42:23 09:45:31 20° 293° (WNW) 09:48:38 437.485
O/OREOS (USA 219) 23 Aug 09:51:19 09:55:44 63° 294° (WNW) 10:00:12 437.305
ZACube-1 23 Aug 09:58:05 10:02:15 49° 287° (WNW) 10:06:29 437.345
ISS 23 Aug 09:58:32 10:01:49 82° 328° (NNW) 10:05:07 437.550
nSIGHT-1 23 Aug 10:03:22 10:06:37 70° 327° (NNW) 10:09:53 .
HO-68 23 Aug 10:05:00 10:10:36 26° 301° (WNW) 10:16:12 435.675
M-CUBED/EXP-1 PRIME 23 Aug 10:08:48 10:11:12 14° 56° (ENE) 10:13:38 437.505
UNISAT 6 23 Aug 10:12:06 10:16:26 85° 260° (W) 10:20:43 437.425
Max Valier Satellite 23 Aug 10:12:32 10:15:39 25° 96° (E) 10:18:47 145.860
AO-73 23 Aug 10:17:51 10:21:44 34° 289° (WNW) 10:25:41 145.935
AAUSAT CUBESAT 2 23 Aug 10:20:01 10:22:43 17° 294° (WNW) 10:25:24 437.432
TIGRISAT 23 Aug 10:46:48 10:50:50 38° 262° (W) 10:54:49 435.000
DELFI C3 23 Aug 10:59:30 11:03:26 61° 286° (WNW) 11:07:19 145.870
DUCHIFAT 1 23 Aug 10:59:50 11:01:40 13° 63° (ENE) 11:03:31 145.980
EO-88 23 Aug 11:00:08 11:03:50 81° 102° (ESE) 11:07:30 145.990 - 145.960
Oscar 11 23 Aug 11:00:37 11:03:30 18° 295° (WNW) 11:06:24 .
PRISM 23 Aug 11:03:50 11:07:32 31° 263° (W) 11:11:16 437.425
RS-15 23 Aug 11:04:38 11:16:40 69° 115° (ESE) 11:28:53 29.354- 29.394
Tancredo 1 23 Aug 11:17:42 11:18:59 12° 352° (N) 11:20:16 437.200
FO-29 23 Aug 11:21:11 11:25:43 17° 270° (W) 11:30:03 435.910
ISS 23 Aug 11:36:13 11:38:41 19° 343° (NNW) 11:41:10 437.550
M-CUBED/EXP-1 PRIME 23 Aug 11:40:26 11:44:58 75° 252° (WSW) 11:49:39 437.505
nSIGHT-1 23 Aug 11:41:06 11:43:27 18° 345° (NNW) 11:45:48 .
NANOSAT C BR1 23 Aug 11:43:56 11:47:53 43° 72° (ENE) 11:51:51 145.865
AIST 2D 23 Aug 11:44:33 11:47:59 60° 260° (W) 11:51:28 435.315
Max Valier Satellite 23 Aug 11:46:32 11:49:21 21° 291° (WNW) 11:52:09 145.860
POLYITAN 1 23 Aug 11:51:07 11:55:14 58° 74° (ENE) 11:59:21 437.675
EO-79 23 Aug 12:06:02 12:10:13 87° 80° (E) 12:14:26 145.935-145.965
QB50P2 23 Aug 12:06:21 12:10:33 84° 257° (WSW) 12:14:47 145.880/145.840
LO-87 23 Aug 12:21:02 12:24:34 78° 284° (WNW) 12:28:06 145.935 - 145.965
BUGSAT 1 23 Aug 12:22:21 12:25:48 27° 69° (ENE) 12:29:15 437.445
VELOX 1 23 Aug 12:22:33 12:23:32 11° 89° (E) 12:24:31 145.980
ESTCUBE 1 23 Aug 12:25:13 12:29:45 63° 101° (E) 12:34:13 437.505/2401.250
DUCHIFAT 1 23 Aug 12:32:44 12:36:50 58° 259° (W) 12:40:58 145.980
Gurwin Techsat 1B 23 Aug 12:50:26 12:54:17 21° 63° (ENE) 12:58:08 435.225
Oscar 19 23 Aug 12:53:15 12:57:45 31° 67° (ENE) 13:02:16 437.125/150
Tancredo 1 23 Aug 12:53:29 12:55:05 14° 12° (NNE) 12:56:43 437.200
AO-7 23 Aug 12:58:00 12:59:46 11° 40° (NE) 13:01:30 .
ISS 23 Aug 13:14:17 13:16:07 14° 4° (N) 13:17:57 437.550
RS-15 23 Aug 13:18:30 13:30:03 44° 320° (NW) 13:41:37 29.354- 29.394
nSIGHT-1 23 Aug 13:18:58 13:20:48 14° 5° (N) 13:22:38 .
NANOSAT C BR1 23 Aug 13:21:16 13:23:47 16° 268° (W) 13:26:20 145.865
AO-85 23 Aug 13:24:21 13:28:22 37° 51° (NE) 13:32:39 145.980
POLYITAN 1 23 Aug 13:29:57 13:31:22 11° 270° (W) 13:32:47 437.675
BEESAT 3 23 Aug 13:30:57 13:34:56 65° 56° (NE) 13:38:50 437.485
SPROUT 23 Aug 13:42:05 13:46:19 74° 285° (WNW) 13:50:33 437.525
DX 1 23 Aug 13:48:54 13:52:35 27° 96° (E) 13:56:15 434.975-435.025
BEESAT 2 23 Aug 13:51:25 13:55:12 36° 51° (NE) 13:58:55 435.950
VELOX 1 23 Aug 13:56:02 14:00:26 69° 286° (WNW) 14:04:48 145.980
BUGSAT 1 23 Aug 13:57:52 14:01:08 23° 265° (W) 14:04:23 437.445
ESTCUBE 1 23 Aug 14:03:41 14:06:01 14° 298° (WNW) 14:08:20 437.505/2401.250
50 SAT 23 Aug 14:13:39 14:17:02 81° 102° (ESE) 14:20:22 437.505
ITAMSAT 1 23 Aug 14:20:49 14:23:52 16° 60° (ENE) 14:26:54 435.822/435.867
Tancredo 1 23 Aug 14:27:58 14:30:47 48° 31° (NNE) 14:33:36 437.200
Gurwin Techsat 1B 23 Aug 14:28:37 14:33:48 54° 259° (W) 14:39:02 435.225
Oscar 19 23 Aug 14:32:25 14:36:59 32° 264° (W) 14:41:37 437.125/150
YUBILEINY 23 Aug 14:34:20 14:40:10 20° 78° (ENE) 14:45:58 435.215
AO-7 23 Aug 14:42:35 14:50:26 47° 62° (ENE) 14:58:17 .
ISS 23 Aug 14:50:33 14:53:25 27° 24° (NNE) 14:56:18 437.550
nSIGHT-1 23 Aug 14:55:01 14:57:57 30° 25° (NNE) 15:00:52 .
UKube-1 23 Aug 14:56:44 15:01:05 82° 282° (WNW) 15:05:22 .
BEESAT 23 Aug 14:58:18 14:59:39 11° 89° (E) 15:01:00 436.000
AO-85 23 Aug 15:05:02 15:08:38 25° 246° (WSW) 15:12:24 145.980
BEESAT 3 23 Aug 15:10:55 15:11:55 11° 252° (WSW) 15:12:54 437.485
DX 1 23 Aug 15:25:01 15:28:42 27° 292° (WNW) 15:32:20 434.975-435.025
BEESAT 2 23 Aug 15:29:39 15:32:43 21° 248° (WSW) 15:35:45 435.950
ITUPSAT 1 23 Aug 15:32:27 15:36:25 26° 95° (E) 15:40:22 437.325
RS-15 23 Aug 15:37:48 15:47:04 23° 353° (N) 15:56:11 29.354- 29.394
MOZHAYETS 4 23 Aug 15:51:05 15:55:20 35° 97° (E) 15:59:34
ITAMSAT 1 23 Aug 15:57:33 16:02:44 70° 257° (WSW) 16:07:56 435.822/435.867
DOVE 4 23 Aug 16:00:50 16:02:16 11° 60° (ENE) 16:03:42 437.250
Tancredo 1 23 Aug 16:03:51 16:05:42 16° 227° (SW) 16:07:30 437.200
CUBESAT XI-V 23 Aug 16:20:05 16:22:46 15° 91° (E) 16:25:25 437.345
ISS 23 Aug 16:26:52 16:30:01 44° 221° (SW) 16:33:08 437.550
YUBILEINY 23 Aug 16:27:00 16:35:49 83° 278° (W) 16:44:38 435.215
nSIGHT-1 23 Aug 16:31:21 16:34:22 37° 223° (SW) 16:37:22 .
BEESAT 23 Aug 16:33:10 16:37:56 76° 286° (WNW) 16:42:41 436.000
AO-7 23 Aug 16:35:27 16:43:13 41° 261° (W) 16:51:01 .
CUTE-I 23 Aug 16:52:24 16:54:22 12° 58° (ENE) 16:56:21 437.470
ITUPSAT 1 23 Aug 17:09:57 17:14:15 34° 292° (WNW) 17:18:32 437.325
KKS-1 23 Aug 17:17:33 17:21:09 24° 95° (E) 17:24:43 437.445
MOZHAYETS 4 23 Aug 17:28:36 17:32:16 24° 293° (WNW) 17:35:56
DOVE 4 23 Aug 17:33:53 17:39:10 82° 75° (ENE) 17:44:18 437.250
NUDT-PHONESAT 23 Aug 17:34:08 17:36:27 16° 67° (ENE) 17:38:46 437.300
LilacSat-2 23 Aug 17:38:51 17:42:05 27° 70° (ENE) 17:45:20 437.200
XW-2D 23 Aug 17:39:12 17:42:21 26° 70° (ENE) 17:45:34 145.860 - 145.880
STARS 23 Aug 17:47:37 17:50:54 20° 94° (E) 17:54:08 437.465
XW-2B 23 Aug 17:50:04 17:53:28 34° 72° (ENE) 17:56:55 145.730 - 145.750
RS-15 23 Aug 17:54:24 18:04:58 32° 29° (NNE) 18:15:04 29.354- 29.394
CUBESAT XI-V 23 Aug 17:55:51 18:00:28 56° 287° (WNW) 18:05:03 437.345
XW-2C 23 Aug 18:08:58 18:12:40 60° 75° (ENE) 18:16:25 145.795 - 145.815
CUTE 1.7 + AOD 2 23 Aug 18:17:25 18:19:49 15° 64° (ENE) 18:22:13 437.475
XW-2F 23 Aug 18:18:29 18:22:13 76° 75° (ENE) 18:25:59 145.980 - 146.000
O/OREOS (USA 219) 23 Aug 18:22:19 18:26:09 26° 58° (ENE) 18:29:57 437.305
CUTE-I 23 Aug 18:28:13 18:33:35 85° 75° (ENE) 18:38:57 437.470
YUBILEINY 23 Aug 18:28:37 18:34:03 18° 299° (WNW) 18:39:31 435.215
KAITUO 1B 23 Aug 18:38:19 18:42:01 76° 259° (W) 18:45:46 145.475/437.950
HO-68 23 Aug 18:44:45 18:51:33 49° 66° (ENE) 18:58:22 435.675
KKS-1 23 Aug 18:53:47 18:57:42 31° 291° (WNW) 19:01:35 437.445
SEEDS 23 Aug 18:57:56 19:01:22 25° 68° (ENE) 19:04:50 437.485
CUBEBUG 2 23 Aug 18:59:50 19:03:05 22° 68° (ENE) 19:06:18 437.445
NUDT-PHONESAT 23 Aug 19:06:44 19:10:03 32° 263° (W) 19:13:26 437.300
LilacSat-2 23 Aug 19:13:32 19:16:21 20° 266° (W) 19:19:11 437.200
XW-2D 23 Aug 19:13:42 19:16:31 20° 266° (W) 19:19:23 145.860 - 145.880
DOVE 4 23 Aug 19:15:18 19:17:20 12° 271° (W) 19:19:20 437.250
XW-2A 23 Aug 19:19:23 19:22:19 29° 72° (ENE) 19:25:16 145.665 - 145.685
ZACube-1 23 Aug 19:20:33 19:21:57 12° 63° (ENE) 19:23:21 437.345
STARS 23 Aug 19:23:20 19:27:18 35° 290° (WNW) 19:31:16 437.465
XW-2B 23 Aug 19:25:26 19:27:45 16° 267° (W) 19:30:07 145.730 - 145.750
AAUSAT CUBESAT 2 23 Aug 19:33:42 19:37:15 28° 69° (ENE) 19:40:50 437.432
AO-73 23 Aug 19:38:30 19:41:04 16° 65° (ENE) 19:43:39 145.935
STRAND 1 23 Aug 19:44:12 19:48:29 27° 95° (E) 19:52:45 437.568
CUTE 1.7 + AOD 2 23 Aug 19:51:06 19:55:12 50° 260° (W) 19:59:22 437.475
O/OREOS (USA 219) 23 Aug 20:01:30 20:05:33 32° 256° (WSW) 20:09:37 437.305
RS-15 23 Aug 20:07:25 20:19:34 83° 57° (ENE) 20:31:01 29.354- 29.394
CUTE-I 23 Aug 20:12:24 20:14:15 12° 271° (W) 20:16:07 437.470
Oscar 11 23 Aug 20:18:17 20:22:08 33° 70° (ENE) 20:26:02 .
UWE-3 23 Aug 20:21:06 20:25:16 80° 256° (WSW) 20:29:26 435.000/436.395/437.385
HO-68 23 Aug 20:33:12 20:39:27 32° 264° (W) 20:45:44 435.675
SEEDS 23 Aug 20:33:20 20:36:56 27° 265° (W) 20:40:35 437.485
CUBEBUG 2 23 Aug 20:35:46 20:39:32 31° 263° (W) 20:43:15 437.445
Max Valier Satellite 23 Aug 20:52:56 20:54:27 12° 65° (ENE) 20:55:59 145.860
XW-2A 23 Aug 20:53:24 20:55:08 13° 267° (W) 20:56:53 145.665 - 145.685
ZACube-1 23 Aug 20:53:36 20:57:42 63° 259° (WSW) 21:01:49 437.345
AAUSAT CUBESAT 2 23 Aug 21:09:16 21:12:39 24° 265° (W) 21:16:05 437.432
AO-73 23 Aug 21:13:03 21:16:58 42° 262° (W) 21:20:54 145.935
STRAND 1 23 Aug 21:23:04 21:27:43 36° 291° (WNW) 21:32:21 437.568
EO-88 23 Aug 21:37:49 21:41:04 32° 72° (ENE) 21:44:21 145.990 - 145.960
DELFI C3 23 Aug 21:44:11 21:48:10 73° 76° (ENE) 21:52:10 145.870
Oscar 11 23 Aug 21:55:02 21:58:19 21° 266° (W) 22:01:38 .
UNISAT 6 23 Aug 22:04:09 22:07:16 19° 93° (E) 22:10:26 437.425
SO-50 23 Aug 22:09:46 22:13:45 31° 115° (ESE) 22:17:44 436.795
RS-15 23 Aug 22:21:26 22:30:32 27° 259° (W) 22:39:21 29.354- 29.394
Max Valier Satellite 23 Aug 22:24:24 22:27:53 44° 261° (W) 22:31:25 145.860
PCSat 23 Aug 22:25:50 22:31:14 75° 117° (ESE) 22:36:41 145.827
FO-29 23 Aug 22:27:59 22:33:29 75° 103° (ESE) 22:38:39 435.910
TIGRISAT 23 Aug 22:37:31 22:41:37 40° 98° (E) 22:45:46 435.000
PRISM 23 Aug 22:44:38 22:48:23 32° 98° (E) 22:52:03 437.425
LO-87 23 Aug 22:56:50 23:00:11 38° 73° (ENE) 23:03:31 145.935 - 145.965
EO-88 23 Aug 23:12:39 23:14:49 15° 267° (W) 23:17:02 145.990 - 145.960
VELOX 1 23 Aug 23:20:10 23:21:25 11° 60° (ENE) 23:22:40 145.980
ESTCUBE 1 23 Aug 23:24:25 23:28:50 57° 73° (ENE) 23:33:17 437.505/2401.250
UNISAT 6 23 Aug 23:40:05 23:44:06 38° 289° (WNW) 23:48:10 437.425
SO-50 23 Aug 23:50:09 23:54:09 31° 312° (NW) 23:58:11 436.795
EO-79 23 Aug 23:52:00 23:54:11 14° 91° (E) 23:56:20 145.935-145.965
QB50P2 23 Aug 23:52:14 23:54:46 15° 92° (E) 23:57:17 145.880/145.840
NO-84 24 Aug 00:10:59 00:13:40 30° 132° (SE) 00:16:16 435.350 FM
PCSat 24 Aug 00:11:21 00:15:14 19° 316° (NW) 00:19:07 145.827
TIGRISAT 24 Aug 00:14:59 00:18:02 19° 294° (WNW) 00:21:06 435.000
FO-29 24 Aug 00:15:00 00:17:49 14° 303° (WNW) 00:20:31 435.910
DUCHIFAT 1 24 Aug 00:17:03 00:20:14 21° 94° (E) 00:23:24 145.980
PRISM 24 Aug 00:20:22 00:23:26 20° 294° (WNW) 00:26:28 437.425
LO-87 24 Aug 00:32:09 00:33:45 13° 268° (W) 00:35:22 145.935 - 145.965
SPROUT 24 Aug 00:34:53 00:39:08 83° 78° (ENE) 00:43:25 437.525
AIST 2D 24 Aug 00:42:24 00:45:50 49° 286° (WNW) 00:49:17 435.315
DX 1 24 Aug 00:44:28 00:48:01 25° 67° (ENE) 00:51:34 434.975-435.025
50 SAT 24 Aug 00:44:38 00:47:31 26° 70° (ENE) 00:50:25 437.505
VELOX 1 24 Aug 00:52:44 00:57:12 79° 257° (WSW) 01:01:41 145.980
M-CUBED/EXP-1 PRIME 24 Aug 00:53:41 00:57:59 83° 107° (ESE) 01:01:56 437.505
NANOSAT C BR1 24 Aug 01:03:12 01:07:25 81° 103° (ESE) 01:11:37 145.865
ESTCUBE 1 24 Aug 01:03:41 01:05:58 14° 269° (W) 01:08:17 437.505/2401.250
POLYITAN 1 24 Aug 01:11:12 01:15:24 74° 284° (WNW) 01:19:37 437.675
EO-79 24 Aug 01:26:08 01:30:12 49° 287° (WNW) 01:34:15 145.935-145.965
QB50P2 24 Aug 01:26:45 01:30:45 44° 288° (WNW) 01:34:45 145.880/145.840
BUGSAT 1 24 Aug 01:38:20 01:42:12 45° 99° (E) 01:46:05 437.445
NO-84 24 Aug 01:48:43 01:51:03 22° 328° (NNW) 01:53:22 435.350 FM
UKube-1 24 Aug 01:50:44 01:55:03 84° 75° (ENE) 01:59:24 .
DUCHIFAT 1 24 Aug 01:52:12 01:55:56 32° 290° (WNW) 01:59:39 145.980
BEESAT 24 Aug 02:04:17 02:06:53 15° 61° (ENE) 02:09:27 436.000
50 SAT 24 Aug 02:17:57 02:20:10 16° 266° (W) 02:22:25 437.505
DX 1 24 Aug 02:20:11 02:24:03 30° 263° (W) 02:27:56 434.975-435.025
M-CUBED/EXP-1 PRIME 24 Aug 02:30:39 02:31:38 11° 306° (NW) 02:32:35 437.505
YUBILEINY 24 Aug 02:37:18 02:45:43 50° 75° (ENE) 02:54:03 435.215
ITUPSAT 1 24 Aug 02:39:09 02:43:17 31° 68° (ENE) 02:47:26 437.325
Oscar 19 24 Aug 02:43:01 02:48:16 88° 96° (E) 02:53:28 437.125/150
Gurwin Techsat 1B 24 Aug 02:44:33 02:49:49 60° 101° (E) 02:55:03 435.225
AO-7 24 Aug 02:47:34 02:50:11 12° 87° (E) 02:52:48 .
MOZHAYETS 4 24 Aug 02:52:55 02:57:00 34° 70° (ENE) 03:01:07
BUGSAT 1 24 Aug 03:14:55 03:17:12 15° 295° (WNW) 03:19:28 437.445
CUBESAT XI-V 24 Aug 03:23:40 03:26:26 16° 63° (ENE) 03:29:14 437.345
BEESAT 24 Aug 03:39:23 03:44:05 65° 258° (WSW) 03:48:50 436.000
ITAMSAT 1 24 Aug 04:10:25 04:15:17 40° 99° (E) 04:20:07 435.822/435.867
KKS-1 24 Aug 04:15:40 04:19:12 23° 67° (ENE) 04:22:45 437.445
ITUPSAT 1 24 Aug 04:17:00 04:21:04 28° 264° (W) 04:25:10 437.325
Oscar 19 24 Aug 04:24:36 04:26:49 13° 301° (WNW) 04:29:00 437.125/150
Gurwin Techsat 1B 24 Aug 04:25:40 04:29:17 19° 298° (WNW) 04:32:53 435.225
MOZHAYETS 4 24 Aug 04:30:35 04:34:12 23° 266° (W) 04:37:51
YUBILEINY 24 Aug 04:34:35 04:42:11 36° 275° (W) 04:49:48 435.215
AO-7 24 Aug 04:36:04 04:44:24 69° 105° (ESE) 04:52:38 .
STARS 24 Aug 04:44:26 04:47:35 20° 65° (ENE) 04:50:45 437.465
BEESAT 3 24 Aug 04:57:20 05:01:19 72° 304° (WNW) 05:05:23 437.485
CUBESAT XI-V 24 Aug 04:58:44 05:03:19 58° 259° (W) 05:07:57 437.345
AO-85 24 Aug 05:19:05 05:23:00 74° 304° (WNW) 05:26:55 145.980
BEESAT 2 24 Aug 05:19:30 05:23:26 62° 119° (ESE) 05:27:27 435.950
PCSat 24 Aug 05:32:22 05:34:29 12° 36° (NE) 05:36:35 145.827
DOVE 4 24 Aug 05:34:09 05:37:23 20° 92° (E) 05:40:29 437.250
ITAMSAT 1 24 Aug 05:50:19 05:54:31 26° 295° (WNW) 05:58:42 435.822/435.867
KKS-1 24 Aug 05:51:32 05:55:35 33° 263° (W) 05:59:38 437.445
KAITUO 1B 24 Aug 06:11:46 06:12:31 10° 90° (E) 06:13:18 145.475/437.950
STARS 24 Aug 06:19:31 06:23:38 39° 261° (W) 06:27:47 437.465
